Vertical_Velocity
-5 1 -4 -1 2 10 7 7 6 2 1 13 -0 0 -4 1 -4 1 -1 -0 2 -0 -1 0 2 -2 -2 1 -3 -2 -4 -3 -0 -5 -1 -1 -1 -2 -3 -2 -0 -0 -1 -14
1 -0 -2 -2 4 9 5 5 -7 11 21 1 1 -1 -4 3 5 -2 2 -1 -1 0 0 1 0 -0 0 3 -1 -6 -5 2 1 5 6 2 1 -0 -1 -1 -1 -4 0 -14
-5 -3 -2 1 0 6 26 8 3 -5 18 2 -2 1 -7 -0 -2 -3 1 -0 4 3 3 -1 -3 0 1 -0 0 1 0 -0 -7 -11 -4 -4 2 1 0 -2 1 -7 -10 -7
-1 0 -2 -1 -1 9 24 2 -4 -0 -1 5 1 4 2 1 -0 -0 4 3 1 -2 2 1 -1 -0 -2 -3 2 -1 -2 -2 3 -2 -0 1 -0 -1 -0 2 -10 -2 -15 -1
2 2 1 0 2 2 46 -4 1 -0 2 3 7 -1 -2 0 -6 3 -0 1 -1 1 -1 -5 -0 0 -0 -0 1 -1 -2 -3 0 -3 -0 1 1 -0 0 -0 -1 2 2 -6
-0 1 -1 1 1 13 25 -3 14 1 -1 1 6 -9 -5 -9 3 -7 -4 -4 3 4 -10 -3 -5 2 -2 -6 -4 -0 -0 -0 2 -7 -0 1 2 -11 -1 -1 -0 -3 -0 -16
-0 3 -4 -13 4 14 4 11 -4 -1 -3 0 -3 0 -0 -1 -5 -2 -2 6 2 -3 -3 -1 1 1 1 4 0 -1 -1 1 -0 -0 3 4 -17 -0 -2 -3 -2 0 0 -0
3 -1 3 0 1 9 5 -7 5 1 -0 -5 5 2 -1 1 -0 3 3 -3 -11 2 -2 -1 1 1 1 -2 -2 2 -1 1 1 -2 -1 -5 -3 -1 -3 -6 -9 -3 -2 1
2 4 2 1 1 19 11 1 6 -3 2 1 3 -0 -2 -2 -1 4 -6 -0 -0 3 -1 2 0 -2 -4 1 1 -0 2 1 4 1 0 -4 -5 -1 1 -2 -8 -2 -2 -1
1 2 0 0 3 9 3 2 3 -1 0 2 -4 1 -2 -1 1 -1 0 -1 6 7 0 2 1 -3 -3 -1 -1 -0 2 1 -2 1 -1 -6 -2 -1 1 3 -10 -0 -2 -3
-2 -1 -0 -2 3 3 0 -2 -2 -1 4 -5 -6 -14 -2 0 -1 0 -3 8 5 4 4 3 -2 1 -4 2 -3 -4 -7 -5 -1 1 2 -8 -1 3 0 -4 1 -1 0 -0
1 -3 -4 1 4 6 2 2 4 -1 10 -1 8 4 4 -9 -7 -5 1 3 0 -3 1 4 1 1 2 -1 -1 2 1 -6 -8 -8 -9 -1 0 -1 -2 -1 -3 -2 -2 2
-1 3 3 -1 2 6 -4 0 6 12 5 -9 6 -20 -20 -2 -9 6 -1 2 -11 4 4 -0 -1 1 0 -1 -3 0 -0 -0 -2 -1 -2 0 -1 -1 2 -2 1 -1 3 -2
1 -4 -2 -2 1 3 -2 -5 1 -1 2 3 -11 6 -6 2 0 -8 -6 4 -2 -1 6 -1 0 0 0 -1 -2 -1 -5 -1 -3 -1 0 1 -1 0 2 0 -0 -2 3 2
-2 0 -1 -1 2 9 5 0 -3 5 -2 5 3 -5 -14 -2 0 4 7 5 4 1 3 1 -2 1 1 0 2 1 -2 -5 -4 -6 -7 -4 -2 0 -2 -3 -2 1 -6 -5
-2 -2 5 -3 -1 4 3 -4 -4 1 4 -1 0 7 -8 -14 -4 1 2 4 14 4 -4 -2 -1 -0 -2 -1 0 -3 -2 0 0 -3 3 1 4 2 2 -2 -4 1 0 3
-1 -2 1 3 4 -0 -15 -4 18 4 10 3 1 -1 9 8 7 5 5 7 4 1 -2 2 -1 0 -0 1 0 -1 2 1 1 2 -11 0 6 -7 2 1 -0 -0 -1 0
-2 -1 5 5 10 18 0 -2 20 11 11 8 1 -4 -1 -0 1 1 3 5 6 8 -1 2 1 0 -1 0 -1 2 2 1 4 4 3 -0 -3 1 -0 5 -2 -2 -1 -1
-0 1 7 13 15 -0 -12 4 6 4 8 0 1 0 -1 4 0 2 6 2 1 -2 -1 -0 1 2 -2 -6 -3 -1 -3 -7 -7 2 2 3 2 -2 1 1 1 -0 -1 -1
5 20 12 -1 -18 -3 -2 -20 -1 12 6 -3 1 1 -1 2 1 1 -2 0 -1 0 -1 2 1 -1 -0 -2 3 5 -1 -3 -7 -10 3 5 3 -1 -4 -3 3 5 0 -1
24 -4 -1 -3 8 1 2 3 0 1 3 1 -3 -0 -1 -0 0 0 -0 -0 -0 0 2 0 0 -1 -1 1 -1 0 -1 4 9 12 9 15 3 -13 -9 -3 1 0 -0 -1
-16 -0 2 -1 1 3 1 -1 -1 2 -2 -0 -0 -2 -2 3 1 -1 1 -0 -0 0 0 -0 -0 -4 1 -0 0 -1 1 2 -1 4 -2 -2 0 1 -0 -2 -3 -1 -0 -2
4 -1 -1 1 2 1 1 -1 -1 1 -0 -1 -0 0 -2 1 -0 -1 -1 -2 -0 0 -0 -2 -3 1 4 2 1 1 2 3 3 -3 3 1 -1 1 0 -6 -1 1 -0 0
3 -3 0 -1 1 -1 -3 -2 -1 -3 1 -0 -1 -0 -1 -0 -2 0 -3 0 1 0 1 -3 -1 -1 0 2 2 -3 -1 2 -1 -1 -1 -2 -2 -3 -1 3 1 -2 -3 -3
-3 -1 -3 -0 -6 0 -0 -0 -1 -2 1 -0 -0 -1 -2 0 -2 -0 -1 1 -1 -1 -3 -1 0 2 -1 1 1 1 -2 -2 -3 -3 -4 -2 -0 -1 -2 -1 -0 -0 0 1
1 1 -0 -0 1 -0 -1 0 0 -1 3 4 -2 -0 -2 -1 -2 -0 -2 0 -3 -3 -0 -0 1 3 2 -3 -0 2 1 -1 -1 0 0 -0 -1 -1 0 -0 0 0 1 1
0 0 1 1 -0 -1 -2 0 2 1 4 -1 -1 -1 -4 -0 -0 0 -0 -1 -0 1 -1 -0 1 0 -1 0 2 2 1 -1 -0 -1 1 2 1 1 0 -1 -1 1 1 2
Height
1448 1450 1453 1457 1460 1465 1467 1469 1467 1465 1471 1478 1475 1473 1471 1469 1462 1468 1470 1468 1468 1468 1471 1471 1472 1468 1463 1462 1464 1471 1470 1480 1488 1482 1480 1479 1481 1484 1486 1492 1500 1505 1501 1478
1440 1444 1446 1451 1454 1458 1462 1461 1460 1459 1463 1463 1466 1467 1466 1466 1463 1462 1464 1463 1464 1465 1466 1471 1468 1464 1463 1462 1462 1464 1467 1481 1493 1483 1481 1481 1480 1481 1481 1486 1493 1489 1489 1472
1434 1437 1440 1443 1447 1452 1457 1458 1454 1457 1451 1453 1457 1462 1460 1462 1460 1460 1460 1457 1461 1465 1465 1464 1464 1462 1463 1463 1464 1465 1463 1472 1471 1466 1457 1466 1476 1476 1475 1473 1482 1469 1474 1468
1426 1429 1432 1436 1440 1445 1449 1450 1445 1446 1448 1448 1451 1454 1453 1455 1457 1456 1455 1456 1459 1461 1463 1462 1461 1464 1466 1465 1466 1467 1472 1476 1472 1462 1460 1462 1472 1466 1470 1469 1463 1469 1460 1465
1419 1422 1425 1428 1432 1439 1440 1436 1437 1443 1441 1445 1450 1450 1451 1452 1450 1452 1452 1454 1454 1455 1462 1464 1466 1468 1468 1465 1469 1474 1480 1475 1474 1474 1465 1464 1464 1465 1463 1463 1461 1462 1459 1460
1412 1415 1418 1420 1425 1430 1425 1428 1428 1433 1437 1440 1442 1440 1443 1448 1450 1447 1447 1449 1453 1454 1453 1458 1457 1460 1460 1460 1465 1471 1475 1471 1471 1466 1461 1464 1463 1446 1460 1459 1455 1456 1461 1450
1406 1408 1410 1412 1416 1417 1420 1419 1426 1431 1432 1433 1435 1433 1439 1441 1445 1450 1448 1448 1450 1451 1451 1454 1456 1457 1458 1456 1458 1462 1467 1467 1468 1464 1466 1466 1441 1441 1444 1445 1446 1452 1454 1454
1401 1404 1406 1407 1409 1413 1415 1418 1423 1425 1426 1428 1431 1433 1436 1439 1442 1444 1444 1446 1449 1450 1449 1453 1454 1455 1455 1452 1454 1453 1455 1458 1459 1456 1458 1444 1438 1442 1443 1442 1438 1444 1447 1455
1398 1400 1402 1404 1407 1410 1413 1417 1421 1426 1429 1429 1430 1433 1434 1435 1438 1442 1441 1444 1445 1447 1450 1452 1449 1442 1439 1444 1449 1450 1450 1457 1453 1456 1451 1444 1430 1435 1434 1436 1435 1435 1440 1448
1395 1397 1399 1402 1405 1408 1411 1415 1419 1425 1426 1426 1427 1428 1428 1430 1435 1436 1435 1437 1441 1443 1446 1446 1443 1436 1434 1435 1443 1450 1448 1454 1444 1444 1445 1438 1431 1434 1436 1437 1433 1433 1438 1445
1392 1395 1397 1400 1403 1406 1409 1413 1417 1422 1420 1419 1422 1428 1427 1429 1433 1434 1434 1433 1433 1438 1441 1439 1432 1430 1429 1430 1428 1435 1433 1441 1443 1444 1442 1437 1425 1433 1432 1428 1429 1433 1439 1444
1391 1393 1396 1399 1402 1406 1409 1411 1414 1418 1420 1421 1420 1424 1425 1426 1428 1435 1433 1429 1426 1427 1432 1432 1430 1428 1430 1427 1423 1425 1425 1422 1427 1430 1422 1423 1421 1423 1425 1426 1428 1433 1439 1443
1389 1391 1394 1397 1400 1403 1406 1409 1412 1415 1416 1416 1418 1416 1417 1418 1420 1425 1431 1427 1426 1423 1426 1427 1424 1425 1421 1420 1419 1418 1421 1419 1423 1426 1423 1417 1421 1423 1423 1424 1429 1432 1438 1442
1387 1390 1392 1396 1399 1402 1405 1407 1410 1413 1414 1412 1407 1406 1407 1409 1412 1415 1417 1420 1422 1425 1426 1426 1422 1418 1414 1410 1407 1408 1412 1415 1418 1421 1421 1421 1421 1421 1421 1425 1432 1435 1442 1444
1384 1388 1391 1394 1397 1401 1403 1406 1408 1409 1413 1405 1401 1401 1401 1402 1404 1404 1409 1415 1418 1421 1422 1421 1417 1411 1412 1411 1411 1403 1404 1403 1408 1404 1406 1409 1411 1415 1421 1427 1432 1437 1439 1445
1381 1385 1388 1392 1395 1399 1402 1404 1401 1403 1405 1409 1402 1398 1395 1396 1398 1401 1403 1407 1410 1412 1411 1411 1410 1406 1404 1409 1404 1394 1394 1394 1396 1397 1402 1405 1408 1417 1424 1428 1433 1438 1442 1447
1379 1383 1386 1389 1393 1395 1397 1398 1398 1396 1402 1405 1399 1391 1388 1391 1393 1394 1396 1399 1400 1402 1404 1404 1405 1403 1398 1401 1392 1386 1389 1392 1395 1396 1401 1411 1413 1418 1425 1429 1434 1439 1445 1450
1377 1381 1384 1388 1391 1394 1393 1393 1392 1397 1400 1397 1393 1388 1386 1384 1384 1386 1387 1388 1391 1393 1396 1397 1395 1399 1399 1393 1387 1387 1389 1392 1396 1399 1401 1403 1411 1419 1425 1431 1434 1441 1446 1450
1375 1380 1383 1385 1388 1389 1389 1391 1393 1394 1399 1392 1390 1386 1381 1380 1379 1380 1382 1383 1385 1391 1392 1390 1388 1391 1393 1381 1383 1384 1387 1390 1395 1400 1404 1408 1411 1420 1425 1430 1436 1440 1445 1449
1376 1380 1378 1381 1382 1388 1390 1391 1390 1387 1386 1387 1383 1381 1380 1381 1376 1377 1378 1380 1382 1383 1384 1384 1381 1378 1378 1378 1380 1382 1386 1389 1395 1400 1409 1410 1415 1419 1424 1430 1436 1440 1444 1448
1371 1374 1378 1381 1382 1386 1387 1383 1381 1382 1381 1379 1376 1376 1376 1376 1375 1374 1378 1380 1381 1378 1380 1379 1380 1377 1375 1377 1380 1384 1387 1392 1396 1399 1401 1405 1409 1415 1423 1430 1436 1440 1444 1447
1370 1372 1376 1382 1384 1383 1385 1384 1381 1378 1374 1373 1372 1373 1374 1374 1374 1373 1377 1378 1381 1375 1381 1380 1376 1369 1370 1374 1378 1384 1389 1394 1398 1401 1403 1408 1413 1418 1424 1430 1435 1439 1443 1446
1371 1374 1377 1378 1382 1384 1383 1384 1376 1374 1369 1368 1369 1373 1372 1372 1372 1376 1378 1380 1382 1382 1380 1373 1367 1367 1370 1374 1379 1385 1392 1397 1399 1402 1406 1410 1415 1421 1425 1430 1434 1438 1442 1445
1366 1368 1376 1375 1379 1374 1369 1366 1365 1365 1364 1366 1369 1371 1371 1374 1375 1379 1377 1383 1382 1381 1379 1368 1367 1368 1371 1376 1380 1385 1392 1396 1400 1404 1408 1412 1416 1421 1426 1431 1434 1437 1441 1443
1366 1369 1373 1373 1366 1364 1364 1364 1364 1364 1365 1366 1369 1371 1372 1375 1378 1379 1381 1381 1380 1375 1369 1369 1369 1369 1372 1377 1382 1387 1392 1397 1401 1405 1409 1413 1418 1422 1426 1430 1434 1436 1439 1441
1366 1365 1366 1365 1364 1362 1362 1362 1362 1364 1365 1366 1368 1372 1376 1376 1376 1377 1377 1377 1373 1370 1371 1371 1370 1371 1374 1379 1384 1389 1393 1398 1403 1407 1411 1415 1418 1422 1426 1429 1432 1435 1438 1440
1363 1362 1361 1362 1362 1362 1362 1361 1362 1364 1365 1369 1371 1374 1373 1376 1376 1375 1373 1372 1372 1373 1371 1370 1370 1372 1376 1381 1386 1391 1396 1400 1404 1408 1412 1416 1419 1423 1426 1429 1431 1434 1437 1439